,,,PA_Meas_PMT16A,,PR_Meas_QMR101_102,,RH_Meas_QMH101,,SR_Meas_QMS101,,TA_Meas_QMH101,,GenWind,,GenWind,
date,time,status,PA,status,PR,status,RH,status,SR,status,TA,status,DirAvg,status,SpdAvg,
2010-02-07, 00:00:04,VALID,1006.71,VALID,0,VALID,82.1325,VALID,0,VALID,25.0469,VALID,7,VALID,1.01523,
2010-02-07, 00:01:04,VALID,1006.76,VALID,0,VALID,82.3995,VALID,0,VALID,25.0274,VALID,9,VALID,1.17852,
2010-02-07, 00:02:04,VALID,1006.75,VALID,0,VALID,82.8039,VALID,0,VALID,24.9495,VALID,27,VALID,1.10703,
2010-02-07, 00:03:04,VALID,1006.76,VALID,0,VALID,82.8039,VALID,0,VALID,24.8892,VALID,32,VALID,1.20508,
2010-02-07, 00:04:04,VALID,1006.75,VALID,0,VALID,82.9488,VALID,0,VALID,24.8911,VALID,38,VALID,0.284766,
2010-02-07, 00:05:04,VALID,1006.73,VALID,0,VALID,82.8268,VALID,0,VALID,24.8484,VALID,15,VALID,1.2293,
2010-02-07, 00:06:04,VALID,1006.75,VALID,0,VALID,82.9412,VALID,0,VALID,24.8484,VALID,25,VALID,1.52734,
2010-02-07, 00:07:04,VALID,1006.72,VALID,0,VALID,82.5674,VALID,0,VALID,24.9495,VALID,37,VALID,0.730859,
2010-02-07, 00:08:04,VALID,1006.74,VALID,0,VALID,82.3461,VALID,0,VALID,24.9866,VALID,32,VALID,0.933203,
2010-02-07, 00:09:04,VALID,1006.75,VALID,0,VALID,82.102,VALID,0,VALID,25.0255,VALID,42,VALID,1.19961,
2010-02-07, 00:10:04,VALID,1006.73,VALID,0,VALID,81.7587,VALID,0,VALID,25.1034,VALID,46,VALID,0.980469,
2010-02-07, 00:11:04,VALID,1006.74,VALID,0,VALID,81.6367,VALID,0,VALID,25.1423,VALID,7,VALID,1.41367,
2010-02-07, 00:12:04,VALID,1006.76,VALID,0,VALID,81.4459,VALID,0,VALID,25.1442,VALID,351,VALID,1.3082,
2010-02-07, 00:13:04,VALID,1006.76,VALID,0,VALID,81.362,VALID,0,VALID,25.1442,VALID,31,VALID,1.16289,
2010-02-07, 00:14:04,VALID,1006.75,VALID,0,VALID,81.6519,VALID,0,VALID,25.1637,VALID,16,VALID,1.34414,
2010-02-07, 00:15:04,VALID,1006.74,VALID,0,VALID,80.3169,VALID,0,VALID,25.2202,VALID,40,VALID,1.77891,
2010-02-07, 00:16:04,VALID,1006.74,VALID,0,VALID,80.3931,VALID,0,VALID,25.3176,VALID,17,VALID,1.19453,
2010-02-07, 00:17:04,VALID,1006.68,VALID,0,VALID,80.4923,VALID,0,VALID,25.2981,VALID,6,VALID,0.607813,
2010-02-07, 00:18:04,VALID,1006.72,VALID,0,VALID,80.7059,VALID,0,VALID,25.3,VALID,18,VALID,1.08281,
2010-02-07, 00:19:04,VALID,1006.72,VALID,0,VALID,80.6678,VALID,0,VALID,25.2397,VALID,29,VALID,1.15586,
2010-02-07, 00:20:04,VALID,1006.69,VALID,0,VALID,80.7822,VALID,0,VALID,25.2202,VALID,45,VALID,0.263672,
2010-02-07, 00:21:04,VALID,1006.69,VALID,0,VALID,80.5686,VALID,0,VALID,25.2435,VALID,10,VALID,1.39688,
2010-02-07, 00:22:04,VALID,1006.67,VALID,0,VALID,80.3931,VALID,0,VALID,25.2806,VALID,6,VALID,1.41992,
2010-02-07, 00:23:04,VALID,1006.64,VALID,0,VALID,80.0956,VALID,0,VALID,25.2592,VALID,47,VALID,1.27148,
2010-02-07, 00:24:04,VALID,1006.69,VALID,0,VALID,80.5305,VALID,0,VALID,25.2592,VALID,9,VALID,1.07773,
2010-02-07, 00:25:04,VALID,1006.67,VALID,0,VALID,80.0041,VALID,0,VALID,25.2397,VALID,20,VALID,1.89688,
2010-02-07, 00:26:04,VALID,1006.65,VALID,0,VALID,80.2558,VALID,0,VALID,25.2397,VALID,355,VALID,1.33516,
2010-02-07, 00:27:04,VALID,1006.63,VALID,0,VALID,80.3474,VALID,0,VALID,25.2416,VALID,33,VALID,1.37344,
2010-02-07, 00:28:04,VALID,1006.61,VALID,0,VALID,80.1643,VALID,0,VALID,25.2806,VALID,22,VALID,1.41875,
2010-02-07, 00:29:04,VALID,1006.62,VALID,0,VALID,80.21,VALID,0,VALID,25.3,VALID,21,VALID,1.29219,
2010-02-07, 00:30:04,VALID,1006.61,VALID,0,VALID,80.4771,VALID,0,VALID,25.2397,VALID,29,VALID,0.997266,
2010-02-07, 00:31:04,VALID,1006.58,VALID,0,VALID,79.9812,VALID,0,VALID,25.2202,VALID,21,VALID,1.95156,
2010-02-07, 00:32:04,VALID,1006.55,VALID,0,VALID,80.4084,VALID,0,VALID,25.2202,VALID,6,VALID,0.709766,
2010-02-07, 00:33:04,VALID,1006.55,VALID,0,VALID,79.9507,VALID,0,VALID,25.2027,VALID,26,VALID,1.52227,
2010-02-07, 00:34:04,VALID,1006.52,VALID,0,VALID,79.9736,VALID,0,VALID,25.2416,VALID,10,VALID,2.20664,
2010-02-07, 00:35:04,VALID,1006.53,VALID,0,VALID,79.5692,VALID,0,VALID,25.263,VALID,351,VALID,1.87422,
2010-02-07, 00:36:04,VALID,1006.5,VALID,0,VALID,79.3556,VALID,0,VALID,25.2397,VALID,357,VALID,1.5582,
2010-02-07, 00:37:04,VALID,1006.55,VALID,0,VALID,79.4777,VALID,0,VALID,25.3195,VALID,21,VALID,1.3582,
2010-02-07, 00:38:04,VALID,1006.53,VALID,0,VALID,79.4777,VALID,0,VALID,25.3195,VALID,2,VALID,0.804297,
2010-02-07, 00:39:04,VALID,1006.53,VALID,0,VALID,79.6226,VALID,0,VALID,25.3195,VALID,14,VALID,1.68281,
2010-02-07, 00:40:04,VALID,1006.53,VALID,0,VALID,79.5387,VALID,0,VALID,25.2806,VALID,336,VALID,0.791797,
2010-02-07, 00:41:04,VALID,1006.53,VALID,0,VALID,79.6379,VALID,0,VALID,25.2611,VALID,33,VALID,1.30195,
2010-02-07, 00:42:04,VALID,1006.56,VALID,0,VALID,79.3556,VALID,0,VALID,25.2611,VALID,14,VALID,1.25625,
2010-02-07, 00:43:04,VALID,1006.5,VALID,0,VALID,78.9284,VALID,0,VALID,25.3,VALID,8,VALID,3.09219,
2010-02-07, 00:44:04,VALID,1006.48,VALID,0,VALID,78.2723,VALID,0,VALID,25.3974,VALID,20,VALID,2.02656,
2010-02-07, 00:45:04,VALID,1006.5,VALID,0,VALID,78.6614,VALID,0,VALID,25.4169,VALID,355,VALID,1.07109,
2010-02-07, 00:46:04,VALID,1006.5,VALID,0,VALID,78.8521,VALID,0,VALID,25.3974,VALID,25,VALID,1.12461,
2010-02-07, 00:47:04,VALID,1006.52,VALID,0,VALID,78.8979,VALID,0,VALID,25.3584,VALID,4,VALID,1.30469,
2010-02-07, 00:48:04,VALID,1006.47,VALID,0,VALID,78.9818,VALID,0,VALID,25.339,VALID,40,VALID,1.38164,
2010-02-07, 00:49:04,VALID,1006.5,VALID,0,VALID,79.0886,VALID,0,VALID,25.2981,VALID,354,VALID,1.79883,
2010-02-07, 00:50:04,VALID,1006.51,VALID,0,VALID,79.1344,VALID,0,VALID,25.339,VALID,36,VALID,1.19023,
2010-02-07, 00:51:04,VALID,1006.47,VALID,0,VALID,78.8369,VALID,0,VALID,25.3,VALID,28,VALID,1.45,
2010-02-07, 00:52:04,VALID,1006.48,VALID,0,VALID,79.0352,VALID,0,VALID,25.339,VALID,33,VALID,0.849609,
2010-02-07, 00:53:04,VALID,1006.46,VALID,0,VALID,78.9589,VALID,0,VALID,25.3195,VALID,329,VALID,0.611328,
2010-02-07, 00:54:04,VALID,1006.45,VALID,0,VALID,79.1344,VALID,0,VALID,25.2786,VALID,15,VALID,0.69375,
2010-02-07, 00:55:04,VALID,1006.43,VALID,0,VALID,79.0199,VALID,0,VALID,25.2611,VALID,29,VALID,1.5543,
2010-02-07, 00:56:04,VALID,1006.43,VALID,0,VALID,79.0886,VALID,0,VALID,25.2806,VALID,12,VALID,1.12305,
2010-02-07, 00:57:04,VALID,1006.38,VALID,0,VALID,79.1954,VALID,0,VALID,25.2397,VALID,15,VALID,0.988281,
2010-02-07, 00:58:04,VALID,1006.36,VALID,0,VALID,79.3098,VALID,0,VALID,25.2611,VALID,18,VALID,1.54219,
2010-02-07, 00:59:04,VALID,1006.34,VALID,0,VALID,78.875,VALID,0,VALID,25.2611,VALID,359,VALID,2.14883,
2010-02-07, 01:00:04,VALID,1006.37,VALID,0,VALID,78.936,VALID,0,VALID,25.3195,VALID,4,VALID,1.15156,
2010-02-07, 01:01:04,VALID,1006.34,VALID,0,VALID,79.203,VALID,0,VALID,25.2786,VALID,351,VALID,0.639063,
2010-02-07, 01:02:04,VALID,1006.37,VALID,0,VALID,79.1344,VALID,0,VALID,25.2592,VALID,16,VALID,0.991797,
2010-02-07, 01:03:04,VALID,1006.33,VALID,0,VALID,79.2259,VALID,0,VALID,25.2202,VALID,37,VALID,1.15547,
2010-02-07, 01:04:04,VALID,1006.33,VALID,0,VALID,79.1267,VALID,0,VALID,25.2397,VALID,25,VALID,1.02813,
2010-02-07, 01:05:04,VALID,1006.35,VALID,0,VALID,79.1039,VALID,0,VALID,25.2611,VALID,352,VALID,1.04844,
2010-02-07, 01:06:04,VALID,1006.31,VALID,0,VALID,79.348,VALID,0,VALID,25.2416,VALID,35,VALID,1.14922,
2010-02-07, 01:07:04,VALID,1006.31,VALID,0,VALID,78.9131,VALID,0,VALID,25.2806,VALID,26,VALID,0.928125,
2010-02-07, 01:08:04,VALID,1006.27,VALID,0,VALID,78.8597,VALID,0,VALID,25.2611,VALID,358,VALID,1.19219,
2010-02-07, 01:09:04,VALID,1006.3,VALID,0,VALID,78.9208,VALID,0,VALID,25.2806,VALID,348,VALID,1.24844,
2010-02-07, 01:10:04,VALID,1006.26,VALID,0,VALID,78.463,VALID,0,VALID,25.337,VALID,7,VALID,1.34883,
2010-02-07, 01:11:04,VALID,1006.27,VALID,0,VALID,78.3639,VALID,0,VALID,25.3565,VALID,12,VALID,1.01719,
2010-02-07, 01:12:04,VALID,1006.24,VALID,0,VALID,78.3639,VALID,0,VALID,25.3584,VALID,33,VALID,1.45938,
2010-02-07, 01:13:04,VALID,1006.24,VALID,0,VALID,78.2418,VALID,0,VALID,25.3584,VALID,331,VALID,1.36289,
2010-02-07, 01:14:04,VALID,1006.26,VALID,0,VALID,78.4859,VALID,0,VALID,25.337,VALID,321,VALID,0.803125,
2010-02-07, 01:15:04,VALID,1006.23,VALID,0,VALID,78.2723,VALID,0,VALID,25.3584,VALID,356,VALID,1.84141,
2010-02-07, 01:16:04,VALID,1006.23,VALID,0,VALID,78.3791,VALID,0.100563,VALID,25.337,VALID,20,VALID,0.9125,
2010-02-07, 01:17:04,VALID,1006.22,VALID,0,VALID,78.3715,VALID,0,VALID,25.3584,VALID,343,VALID,1.02383,
2010-02-07, 01:18:04,VALID,1006.19,VALID,0,VALID,78.463,VALID,0,VALID,25.376,VALID,6,VALID,1.48477,
2010-02-07, 01:19:04,VALID,1006.16,VALID,0,VALID,78.2571,VALID,0,VALID,25.3779,VALID,359,VALID,1.13164,
2010-02-07, 01:20:04,VALID,1006.16,VALID,0,VALID,78.5241,VALID,0,VALID,25.337,VALID,354,VALID,0.695703,
2010-02-07, 01:21:04,VALID,1006.17,VALID,0,VALID,79.0733,VALID,0,VALID,25.3195,VALID,26,VALID,1.03984,
2010-02-07, 01:22:04,VALID,1006.14,VALID,0,VALID,78.8826,VALID,0,VALID,25.2592,VALID,16,VALID,1.4457,
2010-02-07, 01:23:04,VALID,1006.11,VALID,0,VALID,79.1573,VALID,0,VALID,25.2592,VALID,16,VALID,1.35273,
2010-02-07, 01:24:04,VALID,1006.06,VALID,0,VALID,78.9894,VALID,0,VALID,25.2806,VALID,41,VALID,0.663281,
2010-02-07, 01:25:04,VALID,1006.04,VALID,0,VALID,78.9971,VALID,0,VALID,25.2611,VALID,346,VALID,0.965625,
2010-02-07, 01:26:04,VALID,1006.02,VALID,0,VALID,78.9131,VALID,0,VALID,25.2806,VALID,2,VALID,2.28477,
2010-02-07, 01:27:04,VALID,1005.97,VALID,0,VALID,78.4707,VALID,0,VALID,25.3195,VALID,307,VALID,1.32383,
2010-02-07, 01:28:04,VALID,1005.99,VALID,0,VALID,78.6538,VALID,0,VALID,25.3176,VALID,1,VALID,1.9668,
2010-02-07, 01:29:04,VALID,1005.98,VALID,0,VALID,78.3562,VALID,0,VALID,25.3584,VALID,356,VALID,2.46406,
2010-02-07, 01:30:04,VALID,1005.96,VALID,0,VALID,78.1731,VALID,0,VALID,25.4169,VALID,347,VALID,1.82539,
2010-02-07, 01:31:04,VALID,1005.98,VALID,0,VALID,78.3333,VALID,0,VALID,25.4558,VALID,353,VALID,1.40313,
2010-02-07, 01:32:04,VALID,1005.97,VALID,0,VALID,78.3181,VALID,0.100563,VALID,25.4558,VALID,350,VALID,1.48906,
2010-02-07, 01:33:04,VALID,1005.94,VALID,0,VALID,78.4936,VALID,0,VALID,25.4149,VALID,16,VALID,1.53672,
2010-02-07, 01:34:04,VALID,1005.91,VALID,0,VALID,78.4936,VALID,0,VALID,25.4363,VALID,351,VALID,0.982031,
2010-02-07, 01:35:04,VALID,1005.91,VALID,0,VALID,78.4173,VALID,0,VALID,25.4363,VALID,26,VALID,1.42188,
2010-02-07, 01:36:04,VALID,1005.91,VALID,0,VALID,78.1045,VALID,0,VALID,25.4753,VALID,360,VALID,1.76484,
2010-02-07, 01:37:04,VALID,1005.85,VALID,0,VALID,77.9595,VALID,0,VALID,25.4734,VALID,355,VALID,1.94062,
2010-02-07, 01:38:04,VALID,1005.85,VALID,0,VALID,78.0434,VALID,0,VALID,25.5142,VALID,355,VALID,1.31133,
2010-02-07, 01:39:04,VALID,1005.83,VALID,0,VALID,77.6391,VALID,0,VALID,25.5337,VALID,355,VALID,2.29648,
2010-02-07, 01:40:04,VALID,1005.83,VALID,0,VALID,77.5094,VALID,0,VALID,25.5707,VALID,8,VALID,3.6207,
2010-02-07, 01:41:04,VALID,1005.81,VALID,0,VALID,77.2958,VALID,0,VALID,25.5921,VALID,357,VALID,2.25078,
2010-02-07, 01:42:04,VALID,1005.79,VALID,0,VALID,77.1356,VALID,0,VALID,25.6116,VALID,359,VALID,1.88164,
2010-02-07, 01:43:04,VALID,1005.81,VALID,0,VALID,77.6315,VALID,0,VALID,25.6116,VALID,32,VALID,1.52031,
2010-02-07, 01:44:04,VALID,1005.76,VALID,0,VALID,77.6696,VALID,0,VALID,25.5727,VALID,16,VALID,1.1168,
2010-02-07, 01:45:04,VALID,1005.74,VALID,0,VALID,77.5018,VALID,0,VALID,25.5921,VALID,16,VALID,1.67969,
2010-02-07, 01:46:04,VALID,1005.76,VALID,0,VALID,77.5552,VALID,0,VALID,25.5318,VALID,351,VALID,0.965625,
2010-02-07, 01:47:04,VALID,1005.73,VALID,0,VALID,77.7459,VALID,0,VALID,25.5123,VALID,19,VALID,2.00547,
2010-02-07, 01:48:04,VALID,1005.72,VALID,0,VALID,77.7307,VALID,0,VALID,25.5123,VALID,359,VALID,1.05703,
2010-02-07, 01:49:04,VALID,1005.7,VALID,0,VALID,78.1121,VALID,0,VALID,25.5142,VALID,354,VALID,0.969141,
2010-02-07, 01:50:04,VALID,1005.7,VALID,0,VALID,77.662,VALID,0,VALID,25.4753,VALID,353,VALID,1.38789,
2010-02-07, 01:51:04,VALID,1005.72,VALID,0,VALID,77.25,VALID,0,VALID,25.5337,VALID,351,VALID,1.63906,
2010-02-07, 01:52:04,VALID,1005.7,VALID,0,VALID,77.3034,VALID,0,VALID,25.5727,VALID,355,VALID,1.26875,
2010-02-07, 01:53:04,VALID,1005.68,VALID,0,VALID,77.3492,VALID,0,VALID,25.5532,VALID,337,VALID,1.46172,
2010-02-07, 01:54:04,VALID,1005.68,VALID,0,VALID,77.3187,VALID,0,VALID,25.5513,VALID,2,VALID,3.03633,
2010-02-07, 01:55:04,VALID,1005.61,VALID,0,VALID,77.2348,VALID,0,VALID,25.5727,VALID,346,VALID,1.73828,
2010-02-07, 01:56:04,VALID,1005.64,VALID,0,VALID,77.3797,VALID,0,VALID,25.5921,VALID,329,VALID,0.573828,
2010-02-07, 01:57:04,VALID,1005.63,VALID,0,VALID,77.5399,VALID,0,VALID,25.5727,VALID,357,VALID,1.4668,
2010-02-07, 01:58:04,VALID,1005.62,VALID,0,VALID,77.7154,VALID,0,VALID,25.5318,VALID,12,VALID,1.3,
2010-02-07, 01:59:04,VALID,1005.61,VALID,0,VALID,78.1426,VALID,0,VALID,25.5142,VALID,6,VALID,0.901172,
2010-02-07, 02:00:04,VALID,1005.56,VALID,0,VALID,77.4331,VALID,0,VALID,25.4753,VALID,10,VALID,3.36641,
2010-02-07, 02:01:04,VALID,1005.61,VALID,0,VALID,77.5705,VALID,0,VALID,25.5746,VALID,353,VALID,1.48203,
2010-02-07, 02:02:04,VALID,1005.58,VALID,0,VALID,77.5018,VALID,0,VALID,25.5337,VALID,351,VALID,1.53437,
2010-02-07, 02:03:04,VALID,1005.57,VALID,0,VALID,77.7001,VALID,0,VALID,25.5337,VALID,352,VALID,1.23203,
2010-02-07, 02:04:04,VALID,1005.56,VALID,0,VALID,77.7535,VALID,0,VALID,25.5357,VALID,358,VALID,1.47812,
2010-02-07, 02:05:04,VALID,1005.55,VALID,0,VALID,77.9748,VALID,0,VALID,25.4948,VALID,348,VALID,1.6543,
2010-02-07, 02:06:04,VALID,1005.52,VALID,0,VALID,78.2952,VALID,0,VALID,25.5142,VALID,15,VALID,1.26563,
2010-02-07, 02:07:04,VALID,1005.5,VALID,0,VALID,78.2952,VALID,0,VALID,25.5142,VALID,4,VALID,1.11758,
2010-02-07, 02:08:04,VALID,1005.48,VALID,0,VALID,78.2723,VALID,0,VALID,25.4948,VALID,10,VALID,1.36992,
2010-02-07, 02:09:04,VALID,1005.45,VALID,0,VALID,78.135,VALID,0,VALID,25.4967,VALID,21,VALID,2.33789,
2010-02-07, 02:10:04,VALID,1005.45,VALID,0,VALID,78.3333,VALID,0,VALID,25.4344,VALID,23,VALID,1.59922,
2010-02-07, 02:11:04,VALID,1005.47,VALID,0,VALID,78.547,VALID,0,VALID,25.4558,VALID,350,VALID,0.937109,
2010-02-07, 02:12:04,VALID,1005.46,VALID,0,VALID,77.9824,VALID,0,VALID,25.4948,VALID,356,VALID,1.31406,
2010-02-07, 02:13:04,VALID,1005.45,VALID,0,VALID,77.7764,VALID,0,VALID,25.4753,VALID,36,VALID,1.41836,
2010-02-07, 02:14:04,VALID,1005.43,VALID,0,VALID,77.7764,VALID,0,VALID,25.5162,VALID,13,VALID,2.37539,
2010-02-07, 02:15:04,VALID,1005.46,VALID,0,VALID,77.8375,VALID,0,VALID,25.5142,VALID,8,VALID,1.73945,
2010-02-07, 02:16:04,VALID,1005.4,VALID,0,VALID,77.6086,VALID,0,VALID,25.5337,VALID,28,VALID,1.93203,
2010-02-07, 02:17:04,VALID,1005.42,VALID,0,VALID,77.5094,VALID,0,VALID,25.5746,VALID,3,VALID,1.56016,
2010-02-07, 02:18:04,VALID,1005.41,VALID,0,VALID,77.9519,VALID,0,VALID,25.5337,VALID,40,VALID,1.61016,
2010-02-07, 02:19:04,VALID,1005.4,VALID,0,VALID,77.6239,VALID,0,VALID,25.5142,VALID,358,VALID,1.99844,
2010-02-07, 02:20:04,VALID,1005.39,VALID,0,VALID,77.8146,VALID,0,VALID,25.5142,VALID,10,VALID,2.08594,
2010-02-07, 02:21:04,VALID,1005.37,VALID,0,VALID,77.7307,VALID,0,VALID,25.5337,VALID,4,VALID,2.73203,
2010-02-07, 02:22:04,VALID,1005.35,VALID,0,VALID,77.6544,VALID,0,VALID,25.5142,VALID,36,VALID,3.13125,
2010-02-07, 02:23:04,VALID,1005.35,VALID,0,VALID,77.7841,VALID,0,VALID,25.5142,VALID,351,VALID,1.3207,
2010-02-07, 02:24:04,VALID,1005.35,VALID,0,VALID,77.6696,VALID,0,VALID,25.4753,VALID,24,VALID,3.09766,
2010-02-07, 02:25:04,VALID,1005.38,VALID,0,VALID,77.8451,VALID,0,VALID,25.5337,VALID,7,VALID,2.24922,
2010-02-07, 02:26:04,VALID,1005.36,VALID,0,VALID,77.7459,VALID,0,VALID,25.5142,VALID,8,VALID,1.88164,
2010-02-07, 02:27:04,VALID,1005.33,VALID,0,VALID,77.3797,VALID,0,VALID,25.5337,VALID,14,VALID,2.35039,
2010-02-07, 02:28:04,VALID,1005.36,VALID,0,VALID,77.5552,VALID,0,VALID,25.5337,VALID,20,VALID,1.59961,
2010-02-07, 02:29:04,VALID,1005.35,VALID,0,VALID,77.7078,VALID,0,VALID,25.5337,VALID,4,VALID,1.36758,
2010-02-07, 02:30:04,VALID,1005.34,VALID,0,VALID,78.074,VALID,0,VALID,25.5162,VALID,20,VALID,2.03945,
2010-02-07, 02:31:04,VALID,1005.4,VALID,0,VALID,77.4713,VALID,0,VALID,25.5337,VALID,20,VALID,3.17227,
2010-02-07, 02:32:04,VALID,1005.4,VALID,0,VALID,77.3645,VALID,0,VALID,25.5746,VALID,360,VALID,2.02617,
2010-02-07, 02:33:04,VALID,1005.37,VALID,0,VALID,77.3797,VALID,0,VALID,25.5532,VALID,4,VALID,1.14492,
2010-02-07, 02:34:04,VALID,1005.39,VALID,0,VALID,77.6467,VALID,0,VALID,25.5551,VALID,352,VALID,1.27227,
2010-02-07, 02:35:04,VALID,1005.39,VALID,0,VALID,77.6467,VALID,0,VALID,25.5142,VALID,35,VALID,1.5332,
2010-02-07, 02:36:04,VALID,1005.4,VALID,0,VALID,77.9443,VALID,0,VALID,25.5142,VALID,28,VALID,0.8875,
2010-02-07, 02:37:04,VALID,1005.36,VALID,0,VALID,77.8527,VALID,0,VALID,25.4948,VALID,30,VALID,1.09531,
2010-02-07, 02:38:04,VALID,1005.38,VALID,0,VALID,78.1579,VALID,0,VALID,25.4967,VALID,6,VALID,1.87031,
2010-02-07, 02:39:04,VALID,1005.3,VALID,0,VALID,77.7535,VALID,0,VALID,25.4363,VALID,346,VALID,1.775,
2010-02-07, 02:40:04,VALID,1005.31,VALID,0,VALID,77.8909,VALID,0,VALID,25.5162,VALID,24,VALID,2.2457,
2010-02-07, 02:41:04,VALID,1005.29,VALID,0,VALID,77.8298,VALID,0,VALID,25.5357,VALID,356,VALID,2.11289,
2010-02-07, 02:42:04,VALID,1005.28,VALID,0,VALID,78.0511,VALID,0,VALID,25.4948,VALID,15,VALID,2.19492,
2010-02-07, 02:43:04,VALID,1005.24,VALID,0,VALID,78.3333,VALID,0,VALID,25.4558,VALID,359,VALID,0.707031,
2010-02-07, 02:44:04,VALID,1005.26,VALID,0,VALID,78.4401,VALID,0,VALID,25.4363,VALID,14,VALID,1.68906,
2010-02-07, 02:45:04,VALID,1005.23,VALID,0,VALID,78.4783,VALID,0,VALID,25.4169,VALID,34,VALID,1.56719,
2010-02-07, 02:46:04,VALID,1005.23,VALID,0,VALID,78.5164,VALID,0,VALID,25.3974,VALID,8,VALID,1.85,
2010-02-07, 02:47:04,VALID,1005.24,VALID,0,VALID,78.6309,VALID,0,VALID,25.3993,VALID,348,VALID,0.987891,
2010-02-07, 02:48:04,VALID,1005.22,VALID,0,VALID,78.73,VALID,0,VALID,25.3584,VALID,4,VALID,1.27773,
2010-02-07, 02:49:04,VALID,1005.24,VALID,0,VALID,78.8521,VALID,0,VALID,25.3584,VALID,10,VALID,1.32969,
2010-02-07, 02:50:04,VALID,1005.25,VALID,0,VALID,78.6461,VALID,0,VALID,25.3584,VALID,355,VALID,1.5457,
2010-02-07, 02:51:04,VALID,1005.27,VALID,0,VALID,78.7453,VALID,0,VALID,25.3584,VALID,352,VALID,0.821875,
2010-02-07, 02:52:04,VALID,1005.27,VALID,0,VALID,78.608,VALID,0,VALID,25.3195,VALID,11,VALID,1.80938,
2010-02-07, 02:53:04,VALID,1005.28,VALID,0,VALID,78.5775,VALID,0,VALID,25.337,VALID,352,VALID,1.18008,
2010-02-07, 02:54:04,VALID,1005.33,VALID,0,VALID,78.7606,VALID,0,VALID,25.3584,VALID,15,VALID,1.68047,
2010-02-07, 02:55:04,VALID,1005.33,VALID,0,VALID,78.8674,VALID,0,VALID,25.3584,VALID,18,VALID,1.60117,
2010-02-07, 02:56:04,VALID,1005.32,VALID,0,VALID,78.814,VALID,0,VALID,25.3195,VALID,26,VALID,1.70195,
2010-02-07, 02:57:04,VALID,1005.32,VALID,0,VALID,78.8979,VALID,0,VALID,25.339,VALID,22,VALID,1.34766,
2010-02-07, 02:58:04,VALID,1005.35,VALID,0,VALID,78.8597,VALID,0,VALID,25.3409,VALID,354,VALID,1.41484,
2010-02-07, 02:59:04,VALID,1005.31,VALID,0,VALID,78.6309,VALID,0.100563,VALID,25.3584,VALID,16,VALID,2.16133,
2010-02-07, 03:00:04,VALID,1005.34,VALID,0,VALID,78.8979,VALID,0,VALID,25.3584,VALID,33,VALID,1.68398,
2010-02-07, 03:01:04,VALID,1005.38,VALID,0,VALID,78.5164,VALID,0,VALID,25.3779,VALID,15,VALID,1.45742,
2010-02-07, 03:02:04,VALID,1005.39,VALID,0,VALID,79.3709,VALID,0.100563,VALID,25.3779,VALID,25,VALID,0.698828,
2010-02-07, 03:03:04,VALID,1005.38,VALID,0,VALID,79.2793,VALID,0,VALID,25.2962,VALID,16,VALID,1.12656,
2010-02-07, 03:04:04,VALID,1005.4,VALID,0,VALID,79.0047,VALID,0,VALID,25.2786,VALID,26,VALID,1.58359,
2010-02-07, 03:05:04,VALID,1005.4,VALID,0,VALID,79.081,VALID,0.100563,VALID,25.2572,VALID,43,VALID,2.31328,
2010-02-07, 03:06:04,VALID,1005.37,VALID,0,VALID,79.4166,VALID,0,VALID,25.2806,VALID,6,VALID,1.31641,
2010-02-07, 03:07:04,VALID,1005.39,VALID,0,VALID,79.3404,VALID,0.100563,VALID,25.2592,VALID,44,VALID,1.02813,
2010-02-07, 03:08:04,VALID,1005.4,VALID,0,VALID,79.5082,VALID,0,VALID,25.2592,VALID,2,VALID,0.972266,
2010-02-07, 03:09:04,VALID,1005.4,VALID,0,VALID,79.6989,VALID,0,VALID,25.2611,VALID,22,VALID,1.45117,
2010-02-07, 03:10:04,VALID,1005.41,VALID,0,VALID,79.3022,VALID,0,VALID,25.2397,VALID,26,VALID,2.0957,
2010-02-07, 03:11:04,VALID,1005.4,VALID,0,VALID,79.203,VALID,0.100563,VALID,25.2397,VALID,350,VALID,1.23125,
2010-02-07, 03:12:04,VALID,1005.42,VALID,0,VALID,79.7905,VALID,0,VALID,25.2397,VALID,35,VALID,1.06211,
2010-02-07, 03:13:04,VALID,1005.42,VALID,0,VALID,79.5921,VALID,0,VALID,25.2397,VALID,355,VALID,0.639844,
2010-02-07, 03:14:04,VALID,1005.4,VALID,0,VALID,79.6303,VALID,0,VALID,25.2202,VALID,42,VALID,1.16797,
2010-02-07, 03:15:04,VALID,1005.41,VALID,0,VALID,79.8286,VALID,0,VALID,25.2416,VALID,18,VALID,1.12656,
2010-02-07, 03:16:04,VALID,1005.4,VALID,0,VALID,79.6303,VALID,0,VALID,25.2416,VALID,11,VALID,1.46523,
2010-02-07, 03:17:04,VALID,1005.41,VALID,0,VALID,79.882,VALID,0,VALID,25.2416,VALID,34,VALID,0.884375,
2010-02-07, 03:18:04,VALID,1005.4,VALID,0,VALID,79.7065,VALID,0,VALID,25.2221,VALID,18,VALID,1.18945,
2010-02-07, 03:19:04,VALID,1005.42,VALID,0,VALID,79.8133,VALID,0,VALID,25.2027,VALID,12,VALID,1.06406,
2010-02-07, 03:20:04,VALID,1005.43,VALID,0,VALID,79.7981,VALID,0,VALID,25.2046,VALID,16,VALID,2.58555,
2010-02-07, 03:21:04,VALID,1005.43,VALID,0,VALID,79.4472,VALID,0,VALID,25.2416,VALID,22,VALID,1.74883,
2010-02-07, 03:22:04,VALID,1005.43,VALID,0,VALID,79.676,VALID,0,VALID,25.2416,VALID,6,VALID,1.37422,
2010-02-07, 03:23:04,VALID,1005.43,VALID,0,VALID,79.8362,VALID,0,VALID,25.2611,VALID,12,VALID,1.54453,
2010-02-07, 03:24:04,VALID,1005.4,VALID,0,VALID,79.6608,VALID,0,VALID,25.2221,VALID,32,VALID,1.14609,
2010-02-07, 03:25:04,VALID,1005.39,VALID,0,VALID,79.5692,VALID,0,VALID,25.2221,VALID,37,VALID,1.19062,
2010-02-07, 03:26:04,VALID,1005.39,VALID,0,VALID,79.348,VALID,0,VALID,25.2221,VALID,16,VALID,1.77695,
2010-02-07, 03:27:04,VALID,1005.44,VALID,0,VALID,79.409,VALID,0,VALID,25.2825,VALID,4,VALID,1.79023,
2010-02-07, 03:28:04,VALID,1005.44,VALID,0,VALID,79.8973,VALID,0,VALID,25.2416,VALID,17,VALID,1.49297,
2010-02-07, 03:29:04,VALID,1005.45,VALID,0,VALID,79.142,VALID,0,VALID,25.3,VALID,19,VALID,1.6082,
2010-02-07, 03:30:04,VALID,1005.45,VALID,0,VALID,79.4624,VALID,0,VALID,25.3,VALID,5,VALID,0.979297,
2010-02-07, 03:31:04,VALID,1005.48,VALID,0,VALID,79.7447,VALID,0,VALID,25.2806,VALID,25,VALID,0.860156,
2010-02-07, 03:32:04,VALID,1005.46,VALID,0,VALID,79.7218,VALID,0,VALID,25.2416,VALID,2,VALID,0.771484,
2010-02-07, 03:33:04,VALID,1005.51,VALID,0,VALID,80.2863,VALID,0,VALID,25.224,VALID,19,VALID,0.984766,
2010-02-07, 03:34:04,VALID,1005.55,VALID,0,VALID,79.9278,VALID,0,VALID,25.2221,VALID,34,VALID,1.24492,
2010-02-07, 03:35:04,VALID,1005.58,VALID,0,VALID,79.8362,VALID,0,VALID,25.2221,VALID,355,VALID,1.21211,
2010-02-07, 03:36:04,VALID,1005.57,VALID,0,VALID,79.47,VALID,0,VALID,25.2416,VALID,347,VALID,0.919922,
2010-02-07, 03:37:04,VALID,1005.64,VALID,0,VALID,79.6684,VALID,0,VALID,25.2611,VALID,5,VALID,1.54688,
2010-02-07, 03:38:04,VALID,1005.64,VALID,0,VALID,79.4853,VALID,0,VALID,25.2435,VALID,335,VALID,0.975781,
2010-02-07, 03:39:04,VALID,1005.69,VALID,0,VALID,79.3938,VALID,0,VALID,25.263,VALID,3,VALID,1.66562,
2010-02-07, 03:40:04,VALID,1005.7,VALID,0,VALID,78.9055,VALID,0,VALID,25.3,VALID,1,VALID,1.61875,
2010-02-07, 03:41:04,VALID,1005.72,VALID,0,VALID,78.8903,VALID,0,VALID,25.3195,VALID,341,VALID,1.04844,
2010-02-07, 03:42:04,VALID,1005.73,VALID,0,VALID,78.4783,VALID,0,VALID,25.3584,VALID,20,VALID,2.00312,
2010-02-07, 03:43:04,VALID,1005.77,VALID,0,VALID,78.7682,VALID,0,VALID,25.3779,VALID,348,VALID,0.696484,
2010-02-07, 03:44:04,VALID,1005.79,VALID,0,VALID,78.4554,VALID,0,VALID,25.3779,VALID,353,VALID,1.61797,
2010-02-07, 03:45:04,VALID,1005.77,VALID,0,VALID,78.0206,VALID,0,VALID,25.3974,VALID,16,VALID,2.20586,
2010-02-07, 03:46:04,VALID,1005.8,VALID,0,VALID,78.4401,VALID,0,VALID,25.4577,VALID,34,VALID,0.951563,
2010-02-07, 03:47:04,VALID,1005.8,VALID,0,VALID,78.1579,VALID,0,VALID,25.4169,VALID,4,VALID,1.63516,